Volver al catálogo

AUTCUBE 2

ActivoRadioaficionadoPO
NORAD 43681·PAYLOAD·🇯🇵 Japan

Lanzado Oct 29, 2018 desde Tanegashima Space Center

Loading…

Próximos Pases (próximas 24 horas)

TLE

ActualizadoSource: Space-Track

Época: Sep 14, 2026, 12:52 UTC

1 43681U 18084K   26257.53671197  .00003144  00000-0  19451-3 0  9999
2 43681  98.0613 108.4501 0010271  98.6349 261.6044 15.10590739430415

Sigue AUTCUBE 2 en tiempo real con AllMySat

Download on the App Store